User: anonymous
Location: NJAA Observatory
(40.6819°N, 74.8979°W)
Time: 07:22:04
(UTC-04:00)
Language:

Cosmos 1461 - Orbit

View from above orbital plane
View from above orbital plane
View from above satellite
View from above satellite

Ground track
Ground track

The orbit data is extracted from the following two-line orbital elements,

1 14064U 83044A   14202.79185861  .00000802  00000-0  95167-4 0  5659
2 14064 065.0056 320.3400 0094337 107.1639 012.2254 14.88712963565005
Epoch (UTC): 21 July 2014 19:00:16
Eccentricity: 0.0094337
inclination: 65.0056°
perigee height: 536 km
apogee height: 668 km
right ascension of ascending node: 320.3400°
argument of perigee: 107.1639°
revolutions per day: 14.88712963
mean anomaly at epoch: 12.2254°
orbit number at epoch: 56500

The dashed part of the orbit path shows where the satellite is in the earth's shadow,  

DLR